[[{"header":{"parameterUnit":"m.s-1","parameterCategory":1,"la1":30.2991,"la2":30.254,"lo1":-89.0895,"lo2":-89.0444,"dy":0.0017,"dx":0.0017,"nx":28,"ny":28,"refTime":"2023-08-12T21:00:00:Z","depth":0,"parameterNumber":2,"parameterNumberName":"U-component_of_WINDS"},"data":[0,0,0,0,0,0,0,0,0,0,0,0,0,0,0,0,0,0,0,0,0,0,0,0,0,0,0,0,0,0,0,0,0,0,0,0,0,0,0,0,0,0,0,0,0,0,0,0,0,0,0,0,0,0,0,0,0,0,3.9676,3.9677,0,3.9785,3.9787,3.9788,3.9744,3.9741,3.9738,3.9736,3.9848,3.9853,3.9859,0,0,0,0,0,0,0,0,0,0,0,0,0,3.9427,3.9432,3.9676,3.9677,3.9678,3.9785,3.9787,3.9788,3.9744,3.9741,3.9738,3.9735,3.9846,3.9853,3.9859,0,0,0,0,0,0,0,0,0,0,0,0,0,3.9536,3.9434,3.9675,3.9669,3.967,3.9785,3.9787,3.9789,3.9745,3.9741,3.9737,3.9733,3.9844,3.9852,3.986,3.9988,0,0,3.9885,3.9888,0,0,0,0,0,0,0,0,3.953,3.9545,3.9669,3.967,3.9671,3.9747,3.974,3.9855,3.9746,3.9716,3.9736,3.9731,3.9817,3.9827,3.9857,3.9993,3.9998,3.9885,3.989,3.9894,3.9896,0,0,0,0,0,0,0,3.9522,3.954,3.9719,3.9671,3.9672,3.9661,3.9672,3.9762,3.9787,3.9718,3.9716,3.9729,3.9817,3.9849,3.9859,3.9999,3.9885,3.9892,3.9897,3.9901,4.0246,4.025,0,0,0,0,0,0,3.9515,3.9534,3.9715,3.9722,3.9589,3.9668,3.9681,3.9726,3.9786,3.9792,3.9732,3.9727,3.9837,3.9849,3.9863,4.0015,3.9894,3.9901,3.9906,4.0241,4.0246,4.0251,0,0,0,0,0,0,3.951,3.9531,3.9711,3.9628,3.965,3.9677,3.9728,3.9731,3.9762,3.9797,3.9801,3.976,3.9834,3.9851,3.9957,4.0019,3.9905,3.9912,4.0236,4.0243,4.0249,4.0322,0,0,0,0,0,0,3.9503,3.953,3.9578,3.9629,3.9654,3.9804,3.9732,3.9735,3.9776,3.977,3.9824,3.9829,3.9833,3.9945,3.9965,4.0028,3.9919,4.0231,4.0239,4.0247,4.0315,4.0331,4.0344,0,0,0,0,0,3.9494,3.9595,3.9581,3.9603,3.9716,3.9807,3.9822,3.9824,3.9781,3.9831,3.9853,3.9827,4.0009,3.9956,3.9978,4.0044,4.0227,4.0237,4.0246,4.0308,4.0327,4.0344,0,0,0,0,0,0,3.955,3.9601,3.9587,3.9707,3.9753,3.98,3.9861,3.9845,3.9904,3.9895,3.9896,3.9908,4.0017,4.0042,3.9982,4.0171,4.0111,4.0126,4.0151,4.017,4.0184,4.0176,3.9925,0,0,0,0,0,3.9577,3.9647,3.9688,3.979,3.9814,3.9834,3.9874,3.9872,3.992,3.9939,3.9969,4.0016,4.0084,4.0128,4.0193,4.0318,4.0329,4.0375,4.039,4.0402,4.0414,4.0482,4.0502,4.0283,4.0283,4.0283,0,0,3.9632,3.9669,3.9713,3.9802,3.9838,3.991,3.9851,3.993,3.9984,3.9951,4.0052,4.0076,4.0129,4.0245,4.0298,4.0269,4.0477,4.0414,4.0424,4.0429,4.0494,4.0515,4.0533,4.029,4.0288,4.0287,0,0,3.977,3.9805,3.9894,3.9931,3.9986,3.9998,4.002,4.0069,4.0084,4.0186,4.0163,4.0227,4.0343,4.0382,4.0417,4.057,4.0548,4.0591,4.0668,4.0734,4.0752,4.0767,4.0821,4.084,4.0603,4.0604,4.0604,0,3.9832,3.994,3.9941,4.0023,4.0062,4.0037,4.0126,4.0162,4.0235,4.0263,4.023,4.0376,4.041,4.0535,4.0572,4.0602,4.0626,4.0584,4.0749,4.0765,4.0779,4.083,4.085,4.0608,4.0608,4.0607,4.0607,0,4.0013,4.0089,4.0154,4.0225,4.0272,4.0357,4.0371,4.0419,4.0414,4.043,4.0534,4.0574,4.0645,4.0675,4.067,4.0799,4.078,4.0748,4.0688,4.0804,4.0853,4.0872,4.0615,4.0613,4.0612,4.0611,0,0,4.0188,4.0259,4.0283,4.0315,4.0374,4.0432,4.0517,4.0587,4.0628,4.0679,4.0749,4.0849,4.082,4.086,4.086,4.0918,4.1036,4.0879,4.088,4.0906,4.118,4.1202,4.1225,4.1023,4.1026,4.1029,4.1175,0,4.0329,4.0476,4.0481,4.0615,4.0685,4.0662,4.0735,4.0779,4.0797,4.0859,4.0878,4.0949,4.0906,4.093,4.0987,4.1009,4.1091,4.0999,4.1087,4.109,4.1073,4.125,4.1274,4.1409,4.1194,4.1197,4.1199,0,4.0513,4.0571,4.0713,4.0761,4.0791,4.0857,4.0921,4.0981,4.103,4.1039,4.1084,4.1075,4.1161,4.1099,4.1217,4.1155,4.1191,4.1208,4.1213,4.122,4.1151,4.1261,4.1452,4.1472,4.1229,4.1227,4.1225,0,4.0626,4.0739,4.0838,4.0866,4.0926,4.0972,4.1,4.1045,4.1087,4.1144,4.1172,4.1238,4.1274,4.1325,4.1334,4.1289,4.1453,4.1392,4.1462,4.1462,4.1496,4.1493,4.1695,4.1522,4.1522,4.1521,4.1521,0,4.0782,4.0869,4.0889,4.095,4.1047,4.1051,4.1147,4.1171,4.1212,4.1277,4.1262,4.1323,4.1332,4.1396,4.1403,4.1499,4.1516,4.1525,4.1526,4.1526,4.1525,4.1549,4.1539,4.1527,4.1526,4.1525,4.1524,0,4.0923,4.094,4.1046,4.1095,4.1109,4.1178,4.1219,4.1277,4.1294,4.1376,4.1396,4.1422,4.1496,4.1511,4.1598,4.1604,4.1718,4.171,4.1701,4.1699,4.1768,4.1761,4.1991,4.2021,4.183,4.1832,4.1833,0,4.1021,4.1088,4.1143,4.1186,4.1215,4.1284,4.1327,4.1334,4.1379,4.1441,4.1492,4.1564,4.1622,4.1742,4.1768,4.1835,4.1828,4.1904,4.1838,4.1836,4.1828,4.1823,4.1829,4.1916,4.1918,4.192,4.1921,0,4.1193,4.1198,4.1261,4.1327,4.1378,4.143,4.148,4.1515,4.1529,4.1581,4.1656,4.1702,4.1791,4.1863,4.193,4.1958,4.1942,4.1942,4.1962,4.1961,4.1953,4.1957,4.1734,4.1937,4.1935,4.1934,4.1933,4.1933,4.1315,4.1373,4.1421,4.1491,4.1529,4.1576,4.1633,4.1657,4.172,4.1793,4.1794,4.1876,4.1924,4.2013,4.2045,4.2109,4.2085,4.2114,4.2121,4.2127,4.2133,4.1944,4.2122,4.2121,4.2121,4.2121,4.212,0,4.1485,4.1515,4.158,4.1649,4.1705,4.1686,4.1739,4.1787,4.1859,4.1906,4.1963,4.205,4.212,4.2153,4.2222,4.2267,4.2261,4.2285,4.2281,4.2287,4.2151,4.2127,4.2288,4.2288,4.2288,4.2288,4.2288,4.2288,4.158,4.1677,4.1688,4.1804,4.1833,4.1913,4.1946,4.1989,4.2025,4.2123,4.2181,4.2202,4.2243,4.2314,4.2378,4.2385,4.2411,4.2438,4.2442,4.2314,4.2297,4.2281,4.2257,4.2443,4.2444,4.2572,4.2573,4.2574]},{"header":{"parameterUnit":"m.s-1","parameterCategory":1,"la1":30.2991,"la2":30.254,"lo1":-89.0895,"lo2":-89.0444,"dy":0.0017,"dx":0.0017,"nx":28,"ny":28,"refTime":"2023-08-12T21:00:00:Z","depth":0,"parameterNumber":3,"parameterNumberName":"V-component_of_WINDS"},"data":[0,0,0,0,0,0,0,0,0,0,0,0,0,0,0,0,0,0,0,0,0,0,0,0,0,0,0,0,0,0,0,0,0,0,0,0,0,0,0,0,0,0,0,0,0,0,0,0,0,0,0,0,0,0,0,0,0,0,-0.5392,-0.5392,0,-0.5371,-0.5371,-0.5371,-0.536,-0.5359,-0.5359,-0.5359,-0.5337,-0.5336,-0.5335,0,0,0,0,0,0,0,0,0,0,0,0,0,-0.5422,-0.5421,-0.5392,-0.5392,-0.5392,-0.5371,-0.5371,-0.5371,-0.536,-0.5359,-0.5359,-0.5359,-0.5337,-0.5336,-0.5335,0,0,0,0,0,0,0,0,0,0,0,0,0,-0.5406,-0.5421,-0.5392,-0.5384,-0.5383,-0.5371,-0.5371,-0.5371,-0.536,-0.5359,-0.5359,-0.5359,-0.5337,-0.5336,-0.5335,-0.5331,0,0,-0.5333,-0.5332,0,0,0,0,0,0,0,0,-0.5407,-0.5405,-0.5385,-0.5384,-0.5383,-0.5368,-0.5373,-0.5357,-0.536,-0.5368,-0.5359,-0.5359,-0.5347,-0.5345,-0.5341,-0.5329,-0.5329,-0.5333,-0.5332,-0.5332,-0.5331,0,0,0,0,0,0,0,-0.5408,-0.5406,-0.5384,-0.5385,-0.5384,-0.5381,-0.5378,-0.537,-0.5358,-0.5368,-0.5367,-0.5364,-0.5346,-0.5342,-0.5341,-0.5328,-0.5333,-0.5332,-0.5331,-0.5331,-0.5312,-0.5312,0,0,0,0,0,0,-0.541,-0.5407,-0.5385,-0.5383,-0.5395,-0.538,-0.5378,-0.5373,-0.5358,-0.5356,-0.5364,-0.5364,-0.5344,-0.5342,-0.534,-0.5333,-0.5332,-0.5331,-0.533,-0.5312,-0.5312,-0.5312,0,0,0,0,0,0,-0.5411,-0.5409,-0.5386,-0.5395,-0.5392,-0.538,-0.5375,-0.5373,-0.5368,-0.5356,-0.5354,-0.5362,-0.5344,-0.5341,-0.5333,-0.5333,-0.533,-0.533,-0.5312,-0.5312,-0.5312,-0.5321,0,0,0,0,0,0,-0.5412,-0.5409,-0.5407,-0.5395,-0.5391,-0.5379,-0.5375,-0.5372,-0.5367,-0.5366,-0.5353,-0.5351,-0.5343,-0.5335,-0.5332,-0.5331,-0.5329,-0.5312,-0.5312,-0.5312,-0.532,-0.5321,-0.5321,0,0,0,0,0,-0.5413,-0.541,-0.5407,-0.5405,-0.5389,-0.5379,-0.5377,-0.5369,-0.5367,-0.5365,-0.5357,-0.5352,-0.5333,-0.5334,-0.5331,-0.533,-0.5312,-0.5312,-0.5312,-0.532,-0.5321,-0.5321,0,0,0,0,0,0,-0.5422,-0.5408,-0.5405,-0.5398,-0.539,-0.5377,-0.5375,-0.537,-0.5362,-0.5361,-0.5351,-0.5348,-0.5341,-0.5335,-0.5336,-0.5325,-0.5322,-0.5321,-0.5329,-0.533,-0.533,-0.5332,-0.5328,0,0,0,0,0,-0.5423,-0.5417,-0.5405,-0.54,-0.5397,-0.5386,-0.5382,-0.5376,-0.5367,-0.5364,-0.5355,-0.5347,-0.5339,-0.5334,-0.5326,-0.532,-0.5317,-0.5317,-0.5318,-0.5319,-0.5318,-0.5314,-0.5315,-0.5312,-0.5312,-0.5312,0,0,-0.5426,-0.5417,-0.5414,-0.5402,-0.5395,-0.5389,-0.5384,-0.5377,-0.5372,-0.5363,-0.5355,-0.5348,-0.5338,-0.5331,-0.5327,-0.5325,-0.5318,-0.5319,-0.5319,-0.5318,-0.5314,-0.5315,-0.5315,-0.5312,-0.5312,-0.5312,0,0,-0.5427,-0.542,-0.5415,-0.5409,-0.5399,-0.5392,-0.5391,-0.5379,-0.5375,-0.5367,-0.536,-0.5354,-0.534,-0.5334,-0.5328,-0.5328,-0.5322,-0.5325,-0.5328,-0.5325,-0.5325,-0.5325,-0.5325,-0.5325,-0.5325,-0.5325,-0.5325,0,-0.5431,-0.5421,-0.5413,-0.5407,-0.5402,-0.5394,-0.5389,-0.5383,-0.5371,-0.5367,-0.5365,-0.5349,-0.5342,-0.5333,-0.5333,-0.5329,-0.5327,-0.5326,-0.5325,-0.5325,-0.5325,-0.5325,-0.5325,-0.5325,-0.5325,-0.5325,-0.5325,0,-0.5427,-0.542,-0.5417,-0.5406,-0.5401,-0.5396,-0.5386,-0.5382,-0.5377,-0.537,-0.5362,-0.5353,-0.5344,-0.5341,-0.5336,-0.5332,-0.5331,-0.5328,-0.5324,-0.5326,-0.5326,-0.5325,-0.5326,-0.5326,-0.5326,-0.5326,0,0,-0.5432,-0.5417,-0.5416,-0.5411,-0.54,-0.5395,-0.5389,-0.538,-0.5376,-0.5369,-0.5363,-0.5353,-0.535,-0.5344,-0.5338,-0.5335,-0.5335,-0.5332,-0.5331,-0.5332,-0.533,-0.5332,-0.5332,-0.5332,-0.5331,-0.5331,-0.533,0,-0.5431,-0.5421,-0.5414,-0.5406,-0.54,-0.5392,-0.5387,-0.538,-0.5374,-0.5368,-0.5361,-0.5353,-0.535,-0.5346,-0.5343,-0.5336,-0.5334,-0.5336,-0.5326,-0.5326,-0.5329,-0.5332,-0.5334,-0.5333,-0.533,-0.533,-0.533,0,-0.5429,-0.5422,-0.5413,-0.5403,-0.54,-0.5396,-0.5387,-0.5382,-0.5373,-0.5369,-0.5363,-0.5357,-0.535,-0.5348,-0.5339,-0.534,-0.5336,-0.5332,-0.5332,-0.533,-0.5328,-0.533,-0.5333,-0.5333,-0.533,-0.533,-0.533,0,-0.5433,-0.5422,-0.5415,-0.5411,-0.5399,-0.5396,-0.5391,-0.5383,-0.5378,-0.537,-0.5367,-0.5359,-0.5354,-0.5348,-0.534,-0.5339,-0.5332,-0.5329,-0.5328,-0.5328,-0.5326,-0.5326,-0.5328,-0.5324,-0.5324,-0.5324,-0.5324,0,-0.5433,-0.5428,-0.5417,-0.5413,-0.5408,-0.54,-0.5394,-0.5389,-0.5381,-0.5376,-0.5369,-0.5364,-0.5354,-0.5348,-0.5342,-0.5335,-0.5333,-0.5329,-0.5328,-0.533,-0.533,-0.5326,-0.5326,-0.5324,-0.5324,-0.5324,-0.5324,0,-0.5437,-0.543,-0.5422,-0.5412,-0.5409,-0.5405,-0.5396,-0.5392,-0.5386,-0.5379,-0.5377,-0.5368,-0.536,-0.5352,-0.5341,-0.5337,-0.5331,-0.5328,-0.5334,-0.5333,-0.5332,-0.5332,-0.5332,-0.5331,-0.5328,-0.5328,-0.5328,0,-0.5437,-0.5433,-0.5423,-0.5419,-0.5414,-0.5408,-0.5403,-0.5395,-0.5391,-0.5381,-0.5378,-0.537,-0.5363,-0.5351,-0.5343,-0.5335,-0.5333,-0.5333,-0.5331,-0.5334,-0.5332,-0.5333,-0.5332,-0.5333,-0.5333,-0.5333,-0.5334,0,-0.5438,-0.5435,-0.5429,-0.5421,-0.5416,-0.5409,-0.5403,-0.54,-0.539,-0.5386,-0.5378,-0.5373,-0.5363,-0.5355,-0.5346,-0.534,-0.5335,-0.5334,-0.5334,-0.5335,-0.5339,-0.5337,-0.5335,-0.5334,-0.5334,-0.5334,-0.5334,-0.5334,-0.544,-0.5437,-0.5429,-0.5422,-0.5416,-0.541,-0.5406,-0.5399,-0.5393,-0.5384,-0.538,-0.5373,-0.5364,-0.5352,-0.5347,-0.5341,-0.5339,-0.5338,-0.5338,-0.5338,-0.5338,-0.534,-0.5339,-0.5339,-0.5339,-0.5339,-0.5339,0,-0.5441,-0.5435,-0.5429,-0.542,-0.5415,-0.5412,-0.5404,-0.54,-0.5393,-0.5386,-0.538,-0.5372,-0.5364,-0.5356,-0.5348,-0.5345,-0.5342,-0.5343,-0.5343,-0.5341,-0.534,-0.5341,-0.5345,-0.5345,-0.5345,-0.5345,-0.5345,-0.5345,-0.544,-0.5434,-0.543,-0.5421,-0.5415,-0.5408,-0.5404,-0.5399,-0.5393,-0.5384,-0.5378,-0.5373,-0.5365,-0.5357,-0.535,-0.5348,-0.5345,-0.5346,-0.5343,-0.5342,-0.5342,-0.5341,-0.5342,-0.5346,-0.5346,-0.5345,-0.5345,-0.5345]}]]